Regional Weather Roundup
Issued by NWS

Home | Current Version | Previous Version | Text Only | Print | Product List | Glossary On
Versions: 1 2 3 4 5 6 7 8 9 10 11 12 13 14 15 16 17 18 19 20 21 22 23 24 25 26 27 28 29 30 31 32 33 34 35 36 37 38 39 40 41 42 43 44 45 46 47 48 49 50
693
ASUS43 KOAX 060702
RWRNE

WEATHER ROUNDUP FOR NEBRASKA
NATIONAL WEATHER SERVICE OMAHA NE
100 AM CST TUE DEC 06 2016

NOTES: SATELLITE DATA IS BEING USED TO AUGMENT CLOUD COVER ABOVE
       12000 FEET.
       "FAIR" INDICATES FEW OR NO CLOUDS BELOW 12,000 FEET WITH NO
       SIGNIFICANT WEATHER AND/OR OBSTRUCTIONS TO VISIBILITY.

  * THESE STATIONS DO NOT REPORT WEATHER SUCH AS RAIN...SNOW OR FOG.

NEZ001>004-019>022-054>056-060800-
NEBRASKA PANHANDLE

CITY           SKY/WX    TMP DP  RH WIND       PRES   REMARKS
SCOTTSBLUFF    CLEAR     15   4  61 W12       29.98R WCI   2
ALLIANCE       CLEAR     16   4  59 NW18G25   29.92R WCI   0
CHADRON        CLEAR     15   6  67 W14       29.99R WCI   0
KIMBALL        CLEAR     15   8  74 NW17G25   29.92S WCI  -1
SIDNEY         PTCLDY    16   5  62 NW12      29.97R WCI   3
$$

NEZ057>060-069>072-079>082-060800-
SOUTHWEST NEBRASKA

CITY           SKY/WX    TMP DP  RH WIND       PRES   REMARKS
NORTH PLATTE   CLOUDY    24  13  62 W15       29.96R WCI  11
IMPERIAL       CLEAR     22   9  57 NW12      29.99R WCI  10
LEXINGTON      MOCLDY    26  17  66 NW7       29.95F WCI  19
MCCOOK         CLOUDY    28  12  51 NW16      29.98R WCI  16
$$

NEZ005>010-023>029-035>040-094-060800-
NORTH CENTRAL NEBRASKA

CITY           SKY/WX    TMP DP  RH WIND       PRES   REMARKS
VALENTINE      CLEAR     15   7  70 W10       29.93S WCI   2
AINSWORTH      CLEAR     18  10  71 W14G20    29.92S WCI   4
BROKEN BOW     PTCLDY    24  14  65 NW9       29.94R WCI  14
ORD            MOCLDY    24  10  55 NW17G28   29.92R WCI  11
$$

NEZ041-046>049-061>064-073>077-083>087-060800-
SOUTH CENTRAL NEBRASKA

CITY           SKY/WX    TMP DP  RH WIND       PRES   REMARKS
GRAND ISLAND   CLOUDY    28  16  60 NW22G29   29.95R WCI  14
AURORA         CLOUDY    29  17  60 NW16G25   29.93R WCI  17
HASTINGS       CLOUDY    29  16  58 N22G30    29.94R WCI  15
HEBRON         CLOUDY    31  20  62 N16G22    29.93R WCI  20
HOLDREGE       CLOUDY    27  14  58 N17G24    29.94F WCI  15
KEARNEY *      CLOUDY    27  12  54 NW14G24   29.95R WCI  15
YORK           CLOUDY    28  18  64 NW23G30   29.91R WCI  14
$$

NEZ011>018-030>034-042>045-060800-
NORTHEAST NEBRASKA

CITY           SKY/WX    TMP DP  RH WIND       PRES   REMARKS
NORFOLK        MOCLDY    26  15  63 NW18G24   29.88S WCI  13
ALBION         CLOUDY    26  10  50 NW24G30   29.91S WCI  11
BLAIR          CLOUDY    31  24  73 NW16G24   29.86R WCI  20
FREMONT        CLOUDY    30  21  68 NW18G25   29.89R WCI  18
TEKAMAH        CLOUDY    30  21  69 NW22      29.88F WCI  17
WAYNE          CLOUDY    27  17  65 NW20G26   29.90R WCI  13
$$

NEZ050>053-065>068-078-088>093-060800-
SOUTHEAST NEBRASKA

CITY           SKY/WX    TMP DP  RH WIND       PRES   REMARKS
LINCOLN        CLOUDY    32  20  61 NW20      29.91R WCI  20
OMAHA EPPLEY   CLOUDY    32  24  72 N13       29.87R WCI  22
BEATRICE       CLOUDY    32  23  70 N14       29.91R WCI  22
FALLS CITY     CLOUDY    37  33  85 NW18G26   29.84R WCI  27
NEBRASKA CITY  CLOUDY    33  25  71 N21G26    29.86S WCI  21
$$

NEZ044-045-051>053-067-060800-
OMAHA AREA

CITY           SKY/WX    TMP DP  RH WIND       PRES   REMARKS
OMAHA EPPLEY   CLOUDY    32  24  72 N13       29.87R WCI  22
BLAIR          CLOUDY    31  24  73 NW16G24   29.86R WCI  20
FREMONT        CLOUDY    30  21  68 NW18G25   29.89R WCI  18
OFFUTT AFB     CLOUDY    33  30  88 NW7       29.87R WCI  26
WAHOO          CLOUDY    31  19  61 NW23G31   29.88R WCI  18
$$




USA.gov is the U.S. government's official web portal to all federal, state and local government web resources and services.